Location: Pl�tzky
(52.0521°N, 11.8020°E)
Time: 10:59:25
(UTC+00:00)

NOSS 3-2 (C) - Pass Details

Date: 22 November 2019
Orbit: 821 x 1392 km, 63.4° (Epoch: 25 November)

Event Time Altitude Azimuth Distance (km) Brightness Sun altitude
Rises 16:20:24 0° 304° (NW) 3,764 7.1 -10.1°
Reaches altitude 10° 16:23:04 10° 312° (NW) 2,893 6.4 -10.5°
Maximum altitude 16:29:37 42° 22° (NNE) 1,626 4.4 -11.4°
Enters shadow 16:35:55 14° 88° (E) 2,936 5.4 -12.4°
